Simultaneous Nadir Overpasses (SNOs) Predictions

Prediction of SNOs between GOES-15 and METOP-C Satellite Orbit:

Table of predicted SNOs for the next 14.0 days since TLE Epoch: 1/22/2024
Index Date Time (GOES-15) GOES-15 Lat,Lon METOP-C Lat,Lon Distance(km) Time Diff (sec)
1 01/22/2024 17:37:00 0.01, 61.71 -0.67, 58.59 355.48 80
2 01/23/2024 17:13:39 0.02, 61.74 0.40, 63.59 210.67 80
3 01/25/2024 05:32:29 -0.01, 61.76 0.62, 59.04 311.22 80
4 01/26/2024 05:14:30 -0.01, 61.78 -0.52, 64.03 256.15 80
5 01/27/2024 17:33:29 -0.01, 61.82 -0.56, 59.45 271.25 80
6 01/28/2024 17:10:10 -0.01, 61.85 0.58, 64.44 295.13 80
7 01/30/2024 05:28:59 0.02, 61.89 0.48, 59.89 227.70 80
8 01/31/2024 05:11:00 0.02, 61.91 -0.67, 64.88 339.48 80
9 02/01/2024 17:29:59 -0.02, 61.94 -0.40, 60.30 187.66 80
10 02/02/2024 17:06:39 -0.01, 61.97 0.75, 65.29 378.05 80
11 02/04/2024 05:25:29 0.01, 62.03 0.29, 60.74 147.06 80
